2016-10-24 00:03:17 r, 20.49m,0000000001Hz,0000851052c,0000001.847s, 013.5C,00002191
2016-10-24 00:13:17 r, 20.34m,0000000000Hz,0000734605c,0000001.594s, 013.8C,00002191
2016-10-24 00:23:17 r, 20.67m,0000000001Hz,0001005843c,0000002.183s, 014.1C,00002191
2016-10-24 00:33:17 r, 20.71m,0000000000Hz,0001036811c,0000002.250s, 014.5C,00002191
2016-10-24 00:43:17 r, 20.67m,0000000001Hz,0001002391c,0000002.175s, 014.5C,00002191
2016-10-24 00:53:17 r, 20.81m,0000000000Hz,0001139686c,0000002.473s, 014.1C,00002191
2016-10-24 01:03:17 r, 20.81m,0000000001Hz,0001142367c,0000002.479s, 013.8C,00002191
2016-10-24 01:13:17 r, 20.79m,0000000000Hz,0001116463c,0000002.423s, 013.5C,00002191
2016-10-24 01:23:17 r, 20.79m,0000000000Hz,0001121260c,0000002.433s, 013.2C,00002191
2016-10-24 01:33:17 r, 20.76m,0000000001Hz,0001085552c,0000002.356s, 012.8C,00002191
2016-10-24 01:43:17 r, 20.73m,0000000000Hz,0001061870c,0000002.304s, 012.5C,00002191
2016-10-24 01:53:17 r, 20.70m,0000000001Hz,0001028935c,0000002.233s, 012.5C,00002191
2016-10-24 02:03:17 r, 20.64m,0000000000Hz,0000969867c,0000002.105s, 012.5C,00002191
2016-10-24 02:13:17 r, 20.62m,0000000001Hz,0000952873c,0000002.068s, 012.5C,00002191
2016-10-24 02:23:17 r, 20.10m,0000000000Hz,0000598295c,0000001.298s, 012.5C,00002191
2016-10-24 02:33:17 r, 20.09m,0000000001Hz,0000593877c,0000001.289s, 013.2C,00002191
2016-10-24 02:43:17 r, 20.06m,0000000000Hz,0000573831c,0000001.245s, 013.8C,00002191
2016-10-24 02:53:17 r, 20.10m,0000000001Hz,0000597813c,0000001.297s, 014.5C,00002191
2016-10-24 03:03:17 r, 20.24m,0000000001Hz,0000683252c,0000001.483s, 014.8C,00002191
2016-10-24 03:13:17 r, 20.09m,0000000001Hz,0000592406c,0000001.286s, 014.8C,00002191
2016-10-24 03:23:17 r, 20.01m,0000000001Hz,0000551977c,0000001.198s, 014.8C,00002191
2016-10-24 03:33:17 r, 19.93m,0000000001Hz,0000510636c,0000001.108s, 015.1C,00002191
2016-10-24 03:43:17 r, 20.12m,0000000001Hz,0000608873c,0000001.321s, 015.1C,00002191
2016-10-24 03:53:17 r, 20.46m,0000000001Hz,0000820573c,0000001.781s, 015.1C,00002191
2016-10-24 04:03:17 r, 20.62m,0000000000Hz,0000952365c,0000002.067s, 014.8C,00002191
2016-10-24 04:13:17 r, 20.12m,0000000001Hz,0000607588c,0000001.319s, 014.5C,00002191
2016-10-24 04:23:17 r, 20.13m,0000000001Hz,0000613960c,0000001.332s, 014.1C,00002191
2016-10-24 04:33:17 r, 20.43m,0000000001Hz,0000806465c,0000001.750s, 014.1C,00002191
2016-10-24 04:43:17 r, 20.46m,0000000000Hz,0000821490c,0000001.783s, 013.8C,00002191
2016-10-24 04:53:17 r, 20.41m,0000000001Hz,0000787517c,0000001.709s, 013.5C,00002191
2016-10-24 05:03:17 r, 20.45m,0000000001Hz,0000818589c,0000001.776s, 013.2C,00002191
2016-10-24 05:13:17 r, 20.45m,0000000000Hz,0000817656c,0000001.774s, 013.2C,00002191
2016-10-24 05:23:17 r, 20.45m,0000000001Hz,0000816938c,0000001.773s, 013.2C,00002191
2016-10-24 05:33:17 r, 20.39m,0000000001Hz,0000771897c,0000001.675s, 012.8C,00002191
2016-10-24 05:43:17 r, 19.50m,0000000002Hz,0000344310c,0000000.747s, 012.8C,00002191
2016-10-24 05:53:17 r, 19.70m,0000000001Hz,0000414789c,0000000.900s, 013.2C,00002191
2016-10-24 06:03:17 r, 19.63m,0000000001Hz,0000388909c,0000000.844s, 013.5C,00002191
2016-10-24 06:13:17 r, 19.52m,0000000001Hz,0000352250c,0000000.764s, 013.8C,00002191
2016-10-24 06:23:17 r, 19.52m,0000000002Hz,0000348377c,0000000.756s, 014.1C,00002191
2016-10-24 06:33:17 r, 19.34m,0000000002Hz,0000296616c,0000000.644s, 014.1C,00002191
2016-10-24 06:43:17 r, 19.67m,0000000001Hz,0000400355c,0000000.869s, 014.5C,00002191
2016-10-24 06:53:17 r, 19.14m,0000000001Hz,0000247564c,0000000.537s, 014.1C,00002191
2016-10-24 07:03:17 r, 18.37m,0000000004Hz,0000122096c,0000000.265s, 014.1C,00002191
2016-10-24 07:13:17 r, 16.91m,0000000014Hz,0000031831c,0000000.069s, 013.8C,00002191
2016-10-24 07:23:17 r, 15.10m,0000000076Hz,0000005986c,0000000.013s, 013.5C,00002191
2016-10-24 07:33:17 r, 12.99m,0000000540Hz,0000000000c,0000000.000s, 013.2C,00002191
2016-10-24 07:43:17 r, 10.85m,0000003855Hz,0000000000c,0000000.000s, 012.8C,00002191
2016-10-24 07:53:17 r, 09.07m,0000020017Hz,0000000000c,0000000.000s, 012.8C,00002191
2016-10-24 08:03:17 r, 07.79m,0000064751Hz,0000000000c,0000000.000s, 012.8C,00002191
2016-10-24 08:13:17 r, 06.93m,0000143512Hz,0000000000c,0000000.000s, 012.8C,00002191
2016-10-24 08:23:17 r, 06.34m,0000247572Hz,0000000000c,0000000.000s, 012.5C,00002191
2016-10-24 08:33:17 r, 05.92m,0000361317Hz,0000000000c,0000000.000s, 013.2C,00002191
2016-10-24 08:43:17 r, 00.00m,0000475224Hz,0000000000c,0000000.000s, 014.1C,00002191
2016-10-24 08:53:17 r, 00.00m,0000584117Hz,0000000000c,0000000.000s, 015.4C,00002191
2016-10-24 09:03:17 r, 00.00m,0000597090Hz,0000000000c,0000000.000s, 016.7C,00002191
2016-10-24 09:13:17 r, 00.00m,0000596945Hz,0000000000c,0000000.000s, 017.7C,00002191
2016-10-24 09:23:17 r, 00.00m,0000596904Hz,0000000000c,0000000.000s, 018.6C,00002191
2016-10-24 09:33:17 r, 00.00m,0000596722Hz,0000000000c,0000000.000s, 020.3C,00002191
2016-10-24 09:43:17 r, 00.00m,0000596614Hz,0000000000c,0000000.000s, 021.2C,00002191
2016-10-24 09:53:17 r, 00.00m,0000596568Hz,0000000000c,0000000.000s, 022.2C,00002191
2016-10-24 10:03:17 r, 00.00m,0000596510Hz,0000000000c,0000000.000s, 022.8C,00002191
2016-10-24 10:13:17 r, 00.00m,0000596473Hz,0000000000c,0000000.000s, 022.5C,00002191
2016-10-24 10:23:17 r, 00.00m,0000596438Hz,0000000000c,0000000.000s, 022.5C,00002191
2016-10-24 10:33:17 r, 00.00m,0000596376Hz,0000000000c,0000000.000s, 022.8C,00002191
2016-10-24 10:43:17 r, 00.00m,0000596344Hz,0000000000c,0000000.000s, 023.5C,00002191
2016-10-24 10:53:17 r, 00.00m,0000596234Hz,0000000000c,0000000.000s, 024.1C,00002191
2016-10-24 11:03:17 r, 00.00m,0000596177Hz,0000000000c,0000000.000s, 024.8C,00002191
2016-10-24 11:13:17 r, 00.00m,0000596215Hz,0000000000c,0000000.000s, 025.1C,00002191
2016-10-24 11:23:17 r, 00.00m,0000596100Hz,0000000000c,0000000.000s, 026.1C,00002191
2016-10-24 11:33:17 r, 00.00m,0000595941Hz,0000000000c,0000000.000s, 027.3C,00002191
2016-10-24 11:43:17 r, 00.00m,0000595835Hz,0000000000c,0000000.000s, 028.0C,00002191
2016-10-24 11:53:17 r, 00.00m,0000595784Hz,0000000000c,0000000.000s, 027.3C,00002191
2016-10-24 12:03:17 r, 00.00m,0000595857Hz,0000000000c,0000000.000s, 027.7C,00002191
2016-10-24 12:13:17 r, 00.00m,0000595783Hz,0000000000c,0000000.000s, 028.6C,00002191
2016-10-24 12:23:17 r, 00.00m,0000595657Hz,0000000000c,0000000.000s, 028.3C,00002191
2016-10-24 12:33:17 r, 00.00m,0000595700Hz,0000000000c,0000000.000s, 028.6C,00002191
2016-10-24 12:43:17 r, 00.00m,0000595573Hz,0000000000c,0000000.000s, 029.3C,00002191
2016-10-24 12:53:17 r, 00.00m,0000595612Hz,0000000000c,0000000.000s, 029.3C,00002191
2016-10-24 13:03:17 r, 00.00m,0000595631Hz,0000000000c,0000000.000s, 029.0C,00002191
2016-10-24 13:13:17 r, 00.00m,0000595497Hz,0000000000c,0000000.000s, 029.6C,00002191
2016-10-24 13:23:17 r, 00.00m,0000595474Hz,0000000000c,0000000.000s, 030.2C,00002191
2016-10-24 13:33:17 r, 00.00m,0000595475Hz,0000000000c,0000000.000s, 030.9C,00002191
2016-10-24 13:43:17 r, 00.00m,0000595300Hz,0000000000c,0000000.000s, 030.9C,00002191
2016-10-24 13:53:17 r, 00.00m,0000595651Hz,0000000000c,0000000.000s, 029.3C,00002191
2016-10-24 14:03:17 r, 00.00m,0000595962Hz,0000000000c,0000000.000s, 026.7C,00002191
2016-10-24 14:13:17 r, 00.00m,0000596034Hz,0000000000c,0000000.000s, 025.4C,00002191
2016-10-24 14:23:17 r, 00.00m,0000596119Hz,0000000000c,0000000.000s, 024.8C,00002191
2016-10-24 14:33:17 r, 00.00m,0000596103Hz,0000000000c,0000000.000s, 024.4C,00002191
2016-10-24 14:43:17 r, 00.00m,0000596120Hz,0000000000c,0000000.000s, 025.1C,00002191
2016-10-24 14:53:17 r, 00.00m,0000596086Hz,0000000000c,0000000.000s, 025.1C,00002191
2016-10-24 15:03:17 r, 00.00m,0000596066Hz,0000000000c,0000000.000s, 026.1C,00002191
2016-10-24 15:13:17 r, 00.00m,0000595988Hz,0000000000c,0000000.000s, 026.7C,00002191
2016-10-24 15:23:17 r, 00.00m,0000595903Hz,0000000000c,0000000.000s, 027.0C,00002191
2016-10-24 15:33:17 r, 00.00m,0000595893Hz,0000000000c,0000000.000s, 027.7C,00002191
2016-10-24 15:43:17 r, 00.00m,0000595812Hz,0000000000c,0000000.000s, 027.7C,00002191
2016-10-24 15:53:17 r, 00.00m,0000595553Hz,0000000000c,0000000.000s, 029.3C,00002191
2016-10-24 16:03:17 r, 00.00m,0000595447Hz,0000000000c,0000000.000s, 030.6C,00002191
2016-10-24 16:13:17 r, 00.00m,0000595607Hz,0000000000c,0000000.000s, 029.6C,00002191
2016-10-24 16:23:17 r, 00.00m,0000595585Hz,0000000000c,0000000.000s, 028.6C,00002191
2016-10-24 16:33:17 r, 00.00m,0000595683Hz,0000000000c,0000000.000s, 028.3C,00002191
2016-10-24 16:43:17 r, 00.00m,0000595697Hz,0000000000c,0000000.000s, 028.3C,00002191
2016-10-24 16:53:17 r, 00.00m,0000595780Hz,0000000000c,0000000.000s, 028.0C,00002191
2016-10-24 17:03:17 r, 00.00m,0000595720Hz,0000000000c,0000000.000s, 027.3C,00002191
2016-10-24 17:13:17 r, 00.00m,0000595883Hz,0000000000c,0000000.000s, 027.0C,00002191
2016-10-24 17:23:17 r, 00.00m,0000595994Hz,0000000000c,0000000.000s, 026.1C,00002191
2016-10-24 17:33:17 r, 00.00m,0000497686Hz,0000000000c,0000000.000s, 025.4C,00002191
2016-10-24 17:43:17 r, 05.88m,0000375139Hz,0000000000c,0000000.000s, 024.8C,00002191
2016-10-24 17:53:17 r, 06.15m,0000293341Hz,0000000000c,0000000.000s, 024.1C,00002191
2016-10-24 18:03:17 r, 06.67m,0000180305Hz,0000000000c,0000000.000s, 022.8C,00002191
2016-10-24 18:13:17 r, 07.34m,0000098058Hz,0000000000c,0000000.000s, 021.9C,00002191
2016-10-24 18:23:17 r, 08.30m,0000040469Hz,0000000000c,0000000.000s, 020.9C,00002191
2016-10-24 18:33:17 r, 09.67m,0000011425Hz,0000000000c,0000000.000s, 019.9C,00002191
2016-10-24 18:43:17 r, 11.62m,0000001896Hz,0000000000c,0000000.000s, 019.6C,00002191
2016-10-24 18:53:17 r, 13.86m,0000000241Hz,0000000000c,0000000.000s, 019.0C,00002191
2016-10-24 19:03:17 r, 16.06m,0000000032Hz,0000014569c,0000000.032s, 019.0C,00002191
2016-10-24 19:13:17 r, 17.77m,0000000007Hz,0000070276c,0000000.153s, 019.0C,00002191
2016-10-24 19:23:17 r, 19.07m,0000000002Hz,0000232241c,0000000.504s, 018.6C,00002191
2016-10-24 19:33:17 r, 20.00m,0000000001Hz,0000542506c,0000001.177s, 018.6C,00002191
2016-10-24 19:43:17 r, 20.39m,0000000001Hz,0000777609c,0000001.688s, 018.6C,00002191
2016-10-24 19:53:17 r, 20.56m,0000000000Hz,0000911151c,0000001.977s, 018.3C,00002191
2016-10-24 20:03:18 r, 20.59m,0000000001Hz,0000933417c,0000002.026s, 018.3C,00002191
2016-10-24 20:13:17 r, 20.59m,0000000000Hz,0000931439c,0000002.021s, 018.0C,00002191
2016-10-24 20:23:17 r, 20.65m,0000000001Hz,0000984215c,0000002.136s, 018.0C,00002191
2016-10-24 20:33:17 r, 20.59m,0000000000Hz,0000928705c,0000002.015s, 017.7C,00002191
2016-10-24 20:43:17 r, 20.50m,0000000001Hz,0000865219c,0000001.878s, 017.7C,00002191
2016-10-24 20:53:17 r, 19.97m,0000000001Hz,0000530760c,0000001.152s, 017.4C,00002191
2016-10-24 21:03:17 r, 19.65m,0000000001Hz,0000395760c,0000000.859s, 017.4C,00002191
2016-10-24 21:13:17 r, 20.44m,0000000000Hz,0000818299c,0000001.776s, 017.0C,00002191
2016-10-24 21:23:17 r, 20.55m,0000000001Hz,0000893292c,0000001.939s, 016.7C,00002191
2016-10-24 21:33:18 r, 20.69m,0000000000Hz,0001016072c,0000002.205s, 016.4C,00002191
2016-10-24 21:43:17 r, 20.71m,0000000000Hz,0001037366c,0000002.251s, 016.4C,00002191
2016-10-24 21:53:17 r, 20.70m,0000000000Hz,0001026746c,0000002.228s, 016.1C,00002191
2016-10-24 22:03:17 r, 20.66m,0000000000Hz,0000994171c,0000002.157s, 016.1C,00002191
2016-10-24 22:13:17 r, 20.71m,0000000001Hz,0001037381c,0000002.251s, 016.1C,00002191
2016-10-24 22:23:17 r, 20.65m,0000000000Hz,0000975037c,0000002.116s, 015.7C,00002191
2016-10-24 22:33:17 r, 20.72m,0000000000Hz,0001042402c,0000002.262s, 015.7C,00002191
2016-10-24 22:43:17 r, 20.67m,0000000000Hz,0000996697c,0000002.163s, 015.7C,00002191
2016-10-24 22:53:17 r, 20.60m,0000000000Hz,0000941000c,0000002.042s, 016.1C,00002191
2016-10-24 23:03:17 r, 20.76m,0000000000Hz,0001086044c,0000002.357s, 016.1C,00002191
2016-10-24 23:13:17 r, 20.76m,0000000000Hz,0001091700c,0000002.369s, 015.7C,00002191
2016-10-24 23:23:17 r, 20.73m,0000000001Hz,0001057971c,0000002.296s, 015.7C,00002191
2016-10-24 23:33:17 r, 20.77m,0000000001Hz,0001102409c,0000002.392s, 015.7C,00002191
2016-10-24 23:43:17 r, 20.78m,0000000001Hz,0001110672c,0000002.410s, 015.7C,00002191
2016-10-24 23:53:17 r, 20.78m,0000000001Hz,0001110013c,0000002.409s, 015.7C,00002191
